"SCET";"TARGET";"ELECTRON_DENSITY";"ERROR_FLAG";"ELECTRON_DENSITY_ERROR";"FREQ_FCE";"MEASURED_VALUE";"MEASURED_ITEM";"FREQ_PLASMA";"FREQ_UPPER_HYBRID";"FREQ_R_EQUALS_ZERO";"FREQ_L_EQUALS_ZERO";"ORBIT_NUMBER";"SATURN_RADIUS";"SATURN_IAU_LONGITUDE";"SATURN_SLS4_S_LONGITUDE";"SATURN_SLS4_N_LONGITUDE";"SATURN_SLS5_S_LONGITUDE";"SATURN_SLS5_N_LONGITUDE";"SATURN_LOCAL_TIME";"SATURN_KRONOGRAPHIC_LATITUDE";"SATURN_MAGNETIC_LATITUDE";"SATURN_L";"SATURN_L_OFFSET";"SATURN_SOLAR_EQUATORIAL_X";"SATURN_SOLAR_EQUATORIAL_Y";"SATURN_SOLAR_EQUATORIAL_Z";"SATURN_ALTITUDE";"ENCELADUS_ENCOUNTER_NUMBER";"ENCELADUS_RADIUS";"ENCELADUS_COROTATIONAL_X";"ENCELADUS_COROTATIONAL_Y";"ENCELADUS_COROTATIONAL_Z";"ENCELADUS_TRUE_ANOMALY";"ENCELADUS_PERIAPSIS_TIME";"JUPITER_RADIUS";"JUPITER_SYSTEMIII_LONGITUDE";"JUPITER_MAGNETIC_LATITUDE";"JUPITER_MAGNETIC_LOCAL_TIME";"JUPITER_L";"IO_PHASE";"EARTH_RADIUS";"EARTH_MAGNETIC_LATITUDE";"EARTH_LOCAL_TIME";"EARTH_L"
"[UTC]";"[0=Saturn, 1=Enceladus, 2=Jupiter, 3=Earth]";"[cm-3]";"[0=automated, 1=manual]";"[normalized density error]";"[Hz]";"[Hz]";"[0=upper hybrid frequency, 1=plasma frequency cutoff]";"[Hz]";"[Hz]";"[Hz]";"[Hz}";"[0, A, B, C, 3, 4, ... , 292, 293]";"[Rs where 1Rs=60268km]";"[degrees]";"[degrees]";"[degrees]";"[degrees]";"[degrees]";"[hours]";"[degrees]";"[degrees where offset=2293km north]";"[Rs where 1Rs=60268km]";"[Rs where 1Rs=60268km and offset=2293km north]";"[Rs where 1Rs=60268km]";"[Rs where 1Rs=60268km]";"[Rs where 1Rs=60268km]";"[km where ellipsoid a,b=60268km and c=54364km]";"[E0, E1, E2, ... , E21, E22]";"[Renc where 1Renc=252.1km]";"[Renc where 1Renc=252.1km]";"[Renc where 1Renc=252.1km]";"[Renc where 1Renc=252.1km]";"[degrees]";"[UTC]";"[Rj where 1Rj=71492km]";"[degrees]";"[degrees using JRM09 model]";"[hours using JRM09 model]";"[Rj where 1Rj=71492km]";"[degrees]";"[Re where 1Re=6378.1366km]";"[degrees]";"[hours]";"[Re where 1Re=6378.1366km]"
2015-09-08T06:57:02.432Z;0;3.8720e+00;0;     0.214;   469.728;  17676.553; 0;  17670.311;  17676.553;  17906.734;  17437.008;221;   9.465; 298.248;;; 224.243;  72.983;   9.025;  -0.020;  -0.250;   9.465;   9.455;   6.737;  -6.648;  -0.003;;;;;;;;;;;;;;;;;;
2015-09-08T06:57:34.432Z;0;4.6010e+00;0;     0.187;   469.728;  19267.621; 0;  19261.895;  19267.621;  19498.189;  19028.463;221;   9.461; 298.524;;; 224.517;  73.250;   9.027;  -0.020;  -0.250;   9.461;   9.452;   6.738;  -6.642;  -0.003;;;;;;;;;;;;;;;;;;
2015-09-08T06:59:10.431Z;0;4.6830e+00;0;     0.208;   474.908;  19438.488; 0;  19432.686;  19438.488;  19671.590;  19196.684;221;   9.450; 299.350;;; 225.338;  74.050;   9.032;  -0.020;  -0.250;   9.450;   9.441;   6.738;  -6.626;  -0.003;;;;;;;;;;;;;;;;;;
2015-09-08T07:00:30.431Z;0;4.4510e+00;0;     0.200;   485.688;  18951.039; 0;  18944.814;  18951.039;  19189.215;  18703.527;221;   9.441; 300.038;;; 226.025;  74.720;   9.036;  -0.019;  -0.250;   9.441;   9.432;   6.739;  -6.612;  -0.003;;;;;;;;;;;;;;;;;;
2015-09-08T07:01:02.431Z;0;4.5440e+00;0;     0.191;   482.132;  19148.658; 0;  19142.588;  19148.658;  19385.172;  18903.039;221;   9.437; 300.314;;; 226.302;  74.991;   9.038;  -0.019;  -0.250;   9.437;   9.428;   6.739;  -6.606;  -0.003;;;;;;;;;;;;;;;;;;
2015-09-08T07:01:18.431Z;0;4.6570e+00;0;     0.209;   482.132;  19385.420; 0;  19379.424;  19385.420;  19621.988;  19139.857;221;   9.436; 300.451;;; 226.440;  75.127;   9.039;  -0.019;  -0.250;   9.436;   9.426;   6.739;  -6.604;  -0.003;;;;;;;;;;;;;;;;;;
2015-09-08T07:02:38.430Z;0;3.2900e+00;0;     0.238;   491.064;  16296.400; 0;  16289.000;  16296.400;  16536.383;  16045.318;221;   9.426; 301.139;;; 227.134;  75.807;   9.043;  -0.018;  -0.250;   9.426;   9.417;   6.740;  -6.590;  -0.003;;;;;;;;;;;;;;;;;;
2015-09-08T07:03:10.430Z;0;4.7390e+00;0;     0.207;   482.664;  19554.447; 0;  19548.490;  19554.447;  19791.311;  19308.646;221;   9.423; 301.415;;; 227.411;  76.080;   9.045;  -0.018;  -0.250;   9.423;   9.413;   6.740;  -6.584;  -0.003;;;;;;;;;;;;;;;;;;
2015-09-08T07:04:30.429Z;0;4.0500e+00;0;     0.215;   487.060;  18077.633; 0;  18071.070;  18077.633;  18316.240;  17829.182;221;   9.414; 302.103;;; 228.107;  76.762;   9.049;  -0.018;  -0.249;   9.414;   9.404;   6.741;  -6.570;  -0.003;;;;;;;;;;;;;;;;;;
2015-09-08T07:06:22.429Z;0;5.2730e+00;0;     0.194;   481.768;  20625.582; 0;  20619.955;  20625.582;  20862.246;  20380.479;221;   9.401; 303.066;;; 229.084;  77.720;   9.055;  -0.017;  -0.249;   9.401;   9.391;   6.742;  -6.551;  -0.003;;;;;;;;;;;;;;;;;;
2015-09-08T07:08:54.428Z;0;3.1230e+00;0;     0.165;   494.396;  15878.240; 0;  15870.541;  15878.240;  16119.664;  15625.269;221;   9.383; 304.372;;; 230.415;  79.025;   9.063;  -0.017;  -0.249;   9.383;   9.374;   6.743;  -6.525;  -0.003;;;;;;;;;;;;;;;;;;
2015-09-08T07:09:02.428Z;0;3.1370e+00;0;     0.176;   495.740;  15911.867; 0;  15904.143;  15911.867;  16153.944;  15658.204;221;   9.382; 304.441;;; 230.485;  79.094;   9.063;  -0.017;  -0.249;   9.382;   9.373;   6.743;  -6.523;  -0.003;;;;;;;;;;;;;;;;;;
2015-09-08T07:10:30.427Z;0;3.6960e+00;0;     0.216;   495.264;  17271.268; 0;  17264.166;  17271.268;  17513.572;  17018.309;221;   9.372; 305.197;;; 231.253;  79.848;   9.068;  -0.016;  -0.249;   9.372;   9.363;   6.744;  -6.508;  -0.003;;;;;;;;;;;;;;;;;;
2015-09-08T07:11:10.427Z;0;4.3060e+00;0;     0.225;   496.020;  18641.725; 0;  18635.125;  18641.725;  18884.785;  18388.766;221;   9.368; 305.541;;; 231.597;  80.185;   9.070;  -0.016;  -0.249;   9.368;   9.358;   6.744;  -6.501;  -0.003;;;;;;;;;;;;;;;;;;
2015-09-08T07:11:50.426Z;0;4.2570e+00;0;     0.105;   496.020;  18535.125; 0;  18528.486;  18535.125;  18778.156;  18282.137;221;   9.363; 305.884;;; 231.941;  80.523;   9.072;  -0.016;  -0.248;   9.363;   9.353;   6.744;  -6.494;  -0.003;;;;;;;;;;;;;;;;;;
2015-09-08T07:14:38.425Z;0;5.2110e+00;0;     0.215;   502.124;  20504.387; 0;  20498.238;  20504.387;  20750.838;  20248.713;221;   9.344; 307.327;;; 233.380;  81.934;   9.081;  -0.015;  -0.248;   9.344;   9.334;   6.745;  -6.465;  -0.002;;;;;;;;;;;;;;;;;;
2015-09-08T07:14:46.425Z;0;5.7510e+00;0;     0.219;   502.124;  21540.436; 0;  21534.582;  21540.436;  21787.107;  21284.984;221;   9.343; 307.396;;; 233.449;  82.001;   9.081;  -0.015;  -0.248;   9.343;   9.333;   6.745;  -6.464;  -0.002;;;;;;;;;;;;;;;;;;
2015-09-08T07:15:02.425Z;0;5.5760e+00;0;     0.191;   500.360;  21211.516; 0;  21205.613;  21211.516;  21457.270;  20956.908;221;   9.341; 307.533;;; 233.585;  82.135;   9.082;  -0.015;  -0.248;   9.341;   9.331;   6.745;  -6.461;  -0.002;;;;;;;;;;;;;;;;;;
2015-09-08T07:15:18.425Z;0;5.7290e+00;0;     0.189;   500.360;  21499.885; 0;  21494.062;  21499.885;  21745.697;  21245.338;221;   9.339; 307.670;;; 233.722;  82.269;   9.083;  -0.015;  -0.248;   9.339;   9.329;   6.746;  -6.458;  -0.002;;;;;;;;;;;;;;;;;;
2015-09-08T07:15:26.425Z;0;5.7490e+00;0;     0.190;   500.360;  21537.182; 0;  21531.369;  21537.182;  21783.002;  21282.643;221;   9.338; 307.739;;; 233.790;  82.336;   9.083;  -0.015;  -0.248;   9.338;   9.329;   6.746;  -6.457;  -0.002;;;;;;;;;;;;;;;;;;
2015-09-08T07:15:34.425Z;0;5.6230e+00;0;     0.183;   500.360;  21299.840; 0;  21293.963;  21299.840;  21545.611;  21045.252;221;   9.337; 307.808;;; 233.858;  82.403;   9.084;  -0.015;  -0.248;   9.337;   9.328;   6.746;  -6.456;  -0.002;;;;;;;;;;;;;;;;;;
2015-09-08T07:15:42.425Z;0;4.7740e+00;0;     0.150;   500.360;  19626.531; 0;  19620.152;  19626.531;  19871.928;  19371.566;221;   9.336; 307.877;;; 233.926;  82.469;   9.084;  -0.015;  -0.248;   9.336;   9.327;   6.746;  -6.454;  -0.002;;;;;;;;;;;;;;;;;;
2015-09-08T07:15:50.425Z;0;5.0510e+00;0;     0.201;   500.360;  20188.029; 0;  20181.828;  20188.029;  20433.559;  19933.197;221;   9.335; 307.945;;; 233.995;  82.536;   9.085;  -0.014;  -0.248;   9.335;   9.326;   6.746;  -6.453;  -0.002;;;;;;;;;;;;;;;;;;
2015-09-08T07:15:58.425Z;0;4.9370e+00;0;     0.202;   500.360;  19959.492; 0;  19953.219;  19959.492;  20204.969;  19704.607;221;   9.334; 308.014;;; 234.063;  82.603;   9.085;  -0.014;  -0.248;   9.334;   9.325;   6.746;  -6.451;  -0.002;;;;;;;;;;;;;;;;;;
2015-09-08T07:16:22.425Z;0;5.6870e+00;0;     0.219;   506.716;  21421.363; 0;  21415.369;  21421.363;  21670.227;  21163.510;221;   9.332; 308.220;;; 234.267;  82.803;   9.086;  -0.014;  -0.248;   9.332;   9.322;   6.746;  -6.447;  -0.002;;;;;;;;;;;;;;;;;;
2015-09-08T07:16:30.425Z;0;6.0080e+00;0;     0.185;   506.716;  22016.510; 0;  22010.678;  22016.510;  22265.494;  21758.777;221;   9.331; 308.289;;; 234.335;  82.870;   9.087;  -0.014;  -0.248;   9.331;   9.321;   6.746;  -6.446;  -0.002;;;;;;;;;;;;;;;;;;
2015-09-08T07:16:54.425Z;0;5.5660e+00;0;     0.188;   506.716;  21192.539; 0;  21186.480;  21192.539;  21441.354;  20934.637;221;   9.328; 308.495;;; 234.539;  83.070;   9.088;  -0.014;  -0.248;   9.328;   9.318;   6.746;  -6.442;  -0.002;;;;;;;;;;;;;;;;;;
2015-09-08T07:17:02.424Z;0;5.9380e+00;0;     0.178;   503.972;  21888.656; 0;  21882.854;  21888.656;  22136.291;  21632.318;221;   9.327; 308.563;;; 234.607;  83.137;   9.089;  -0.014;  -0.248;   9.327;   9.318;   6.746;  -6.440;  -0.002;;;;;;;;;;;;;;;;;;
2015-09-08T07:17:10.424Z;0;5.7010e+00;0;     0.183;   503.972;  21447.574; 0;  21441.652;  21447.574;  21695.119;  21191.146;221;   9.326; 308.632;;; 234.675;  83.204;   9.089;  -0.014;  -0.248;   9.326;   9.317;   6.746;  -6.439;  -0.002;;;;;;;;;;;;;;;;;;
2015-09-08T07:17:26.424Z;0;5.2030e+00;0;     0.178;   503.972;  20490.373; 0;  20484.174;  20490.373;  20737.711;  20233.738;221;   9.324; 308.769;;; 234.811;  83.337;   9.090;  -0.014;  -0.248;   9.324;   9.315;   6.746;  -6.436;  -0.002;;;;;;;;;;;;;;;;;;
2015-09-08T07:17:34.424Z;0;5.6160e+00;0;     0.200;   503.972;  21287.000; 0;  21281.033;  21287.000;  21534.512;  21030.539;221;   9.323; 308.838;;; 234.879;  83.403;   9.090;  -0.014;  -0.248;   9.323;   9.314;   6.747;  -6.435;  -0.002;;;;;;;;;;;;;;;;;;
2015-09-08T07:17:58.424Z;0;6.0360e+00;0;     0.172;   503.972;  22068.326; 0;  22062.570;  22068.326;  22315.996;  21812.023;221;   9.321; 309.044;;; 235.083;  83.603;   9.092;  -0.014;  -0.248;   9.321;   9.311;   6.747;  -6.431;  -0.002;;;;;;;;;;;;;;;;;;
2015-09-08T07:18:14.424Z;0;6.0380e+00;0;     0.177;   505.652;  22071.152; 0;  22065.359;  22071.152;  22319.633;  21813.982;221;   9.319; 309.181;;; 235.219;  83.736;   9.092;  -0.014;  -0.248;   9.319;   9.309;   6.747;  -6.428;  -0.002;;;;;;;;;;;;;;;;;;
2015-09-08T07:18:22.424Z;0;5.5850e+00;0;     0.186;   505.652;  21227.418; 0;  21221.395;  21227.418;  21475.727;  20970.074;221;   9.318; 309.250;;; 235.286;  83.803;   9.093;  -0.014;  -0.248;   9.318;   9.308;   6.747;  -6.426;  -0.002;;;;;;;;;;;;;;;;;;
2015-09-08T07:18:38.424Z;0;6.0550e+00;0;     0.180;   505.652;  22103.385; 0;  22097.600;  22103.385;  22351.873;  21846.221;221;   9.316; 309.387;;; 235.422;  83.936;   9.094;  -0.014;  -0.248;   9.316;   9.306;   6.747;  -6.424;  -0.002;;;;;;;;;;;;;;;;;;
2015-09-08T07:18:46.424Z;0;5.9570e+00;0;     0.237;   505.652;  21924.111; 0;  21918.279;  21924.111;  22172.564;  21666.912;221;   9.315; 309.456;;; 235.490;  84.002;   9.094;  -0.014;  -0.248;   9.315;   9.306;   6.747;  -6.422;  -0.002;;;;;;;;;;;;;;;;;;
2015-09-08T07:18:54.424Z;0;5.1180e+00;0;     0.199;   505.652;  20321.859; 0;  20315.568;  20321.859;  20569.967;  20064.314;221;   9.314; 309.525;;; 235.557;  84.068;   9.095;  -0.014;  -0.248;   9.314;   9.305;   6.747;  -6.421;  -0.002;;;;;;;;;;;;;;;;;;
2015-09-08T07:19:02.424Z;0;5.2910e+00;0;     0.198;   505.904;  20661.918; 0;  20655.723;  20661.918;  20910.225;  20404.320;221;   9.313; 309.593;;; 235.625;  84.135;   9.095;  -0.013;  -0.248;   9.313;   9.304;   6.747;  -6.419;  -0.002;;;;;;;;;;;;;;;;;;
2015-09-08T07:19:18.424Z;0;5.5750e+00;0;     0.195;   505.904;  21210.049; 0;  21204.014;  21210.049;  21458.475;  20952.570;221;   9.311; 309.731;;; 235.761;  84.267;   9.096;  -0.013;  -0.247;   9.311;   9.302;   6.747;  -6.417;  -0.002;;;;;;;;;;;;;;;;;;
2015-09-08T07:19:50.423Z;0;4.8200e+00;0;     0.143;   505.904;  19720.621; 0;  19714.131;  19720.621;  19968.705;  19462.801;221;   9.308; 310.005;;; 236.031;  84.533;   9.098;  -0.013;  -0.247;   9.308;   9.298;   6.747;  -6.411;  -0.002;;;;;;;;;;;;;;;;;;
2015-09-08T07:20:06.423Z;0;4.5750e+00;0;     0.191;   508.508;  19215.201; 0;  19208.471;  19215.201;  19464.408;  18955.900;221;   9.306; 310.142;;; 236.167;  84.666;   9.098;  -0.013;  -0.247;   9.306;   9.296;   6.747;  -6.408;  -0.002;;;;;;;;;;;;;;;;;;
2015-09-08T07:20:22.423Z;0;5.5620e+00;0;     0.204;   508.508;  21183.684; 0;  21177.580;  21183.684;  21433.359;  20924.852;221;   9.304; 310.280;;; 236.303;  84.801;   9.099;  -0.013;  -0.247;   9.304;   9.295;   6.748;  -6.405;  -0.002;;;;;;;;;;;;;;;;;;
2015-09-08T07:20:30.423Z;0;5.5940e+00;0;     0.190;   508.508;  21244.332; 0;  21238.246;  21244.332;  21494.021;  20985.514;221;   9.303; 310.348;;; 236.371;  84.869;   9.100;  -0.013;  -0.247;   9.303;   9.294;   6.748;  -6.404;  -0.002;;;;;;;;;;;;;;;;;;
2015-09-08T07:20:46.423Z;0;5.1340e+00;0;     0.203;   508.508;  20353.574; 0;  20347.221;  20353.574;  20603.064;  20094.555;221;   9.301; 310.486;;; 236.508;  85.004;   9.101;  -0.013;  -0.247;   9.301;   9.292;   6.748;  -6.401;  -0.002;;;;;;;;;;;;;;;;;;
2015-09-08T07:21:02.423Z;0;5.1470e+00;0;     0.215;   510.160;  20379.041; 0;  20372.654;  20379.041;  20629.332;  20119.172;221;   9.299; 310.623;;; 236.644;  85.140;   9.101;  -0.013;  -0.247;   9.299;   9.290;   6.748;  -6.399;  -0.002;;;;;;;;;;;;;;;;;;
2015-09-08T07:21:10.423Z;0;5.2580e+00;0;     0.227;   510.160;  20596.881; 0;  20590.562;  20596.881;  20847.223;  20337.062;221;   9.298; 310.692;;; 236.713;  85.207;   9.102;  -0.013;  -0.247;   9.298;   9.289;   6.748;  -6.397;  -0.002;;;;;;;;;;;;;;;;;;
2015-09-08T07:22:06.423Z;0;4.4250e+00;0;     0.208;   513.772;  18896.381; 0;  18889.395;  18896.381;  19148.027;  18634.256;221;   9.292; 311.172;;; 237.190;  85.682;   9.105;  -0.013;  -0.247;   9.292;   9.283;   6.748;  -6.387;  -0.002;;;;;;;;;;;;;;;;;;
2015-09-08T07:22:46.422Z;0;5.4850e+00;0;     0.164;   513.772;  21037.207; 0;  21030.932;  21037.207;  21289.387;  20775.615;221;   9.287; 311.515;;; 237.531;  86.021;   9.107;  -0.012;  -0.247;   9.287;   9.278;   6.748;  -6.380;  -0.002;;;;;;;;;;;;;;;;;;
2015-09-08T07:23:10.422Z;0;5.6440e+00;0;     0.177;   511.028;  21339.990; 0;  21333.871;  21339.990;  21590.914;  21079.887;221;   9.285; 311.721;;; 237.736;  86.225;   9.108;  -0.012;  -0.247;   9.285;   9.275;   6.749;  -6.376;  -0.002;;;;;;;;;;;;;;;;;;
2015-09-08T07:23:18.422Z;0;5.5670e+00;0;     0.177;   511.028;  21194.598; 0;  21188.436;  21194.598;  21445.490;  20934.463;221;   9.284; 311.790;;; 237.804;  86.293;   9.109;  -0.012;  -0.247;   9.284;   9.274;   6.749;  -6.375;  -0.002;;;;;;;;;;;;;;;;;;
2015-09-08T07:23:26.422Z;0;5.7230e+00;0;     0.213;   511.028;  21489.074; 0;  21482.996;  21489.074;  21740.031;  21229.002;221;   9.283; 311.858;;; 237.872;  86.361;   9.109;  -0.012;  -0.247;   9.283;   9.273;   6.749;  -6.373;  -0.002;;;;;;;;;;;;;;;;;;
2015-09-08T07:23:42.422Z;0;5.6640e+00;0;     0.188;   511.028;  21378.129; 0;  21372.020;  21378.129;  21629.061;  21118.033;221;   9.281; 311.995;;; 238.009;  86.497;   9.110;  -0.012;  -0.247;   9.281;   9.271;   6.749;  -6.371;  -0.002;;;;;;;;;;;;;;;;;;
2015-09-08T07:23:50.422Z;0;5.2510e+00;0;     0.219;   511.028;  20583.543; 0;  20577.199;  20583.543;  20834.299;  20323.271;221;   9.280; 312.064;;; 238.077;  86.565;   9.110;  -0.012;  -0.247;   9.280;   9.271;   6.749;  -6.369;  -0.002;;;;;;;;;;;;;;;;;;
2015-09-08T07:24:14.422Z;0;5.4750e+00;0;     0.215;   514.220;  21018.451; 0;  21012.160;  21018.451;  21270.844;  20756.623;221;   9.277; 312.270;;; 238.282;  86.769;   9.112;  -0.012;  -0.247;   9.277;   9.268;   6.749;  -6.365;  -0.002;;;;;;;;;;;;;;;;;;
2015-09-08T07:24:46.422Z;0;5.6730e+00;0;     0.208;   514.220;  21393.896; 0;  21387.715;  21393.896;  21646.371;  21132.150;221;   9.274; 312.544;;; 238.554;  87.042;   9.113;  -0.012;  -0.247;   9.274;   9.264;   6.749;  -6.360;  -0.002;;;;;;;;;;;;;;;;;;
2015-09-08T07:24:54.421Z;0;5.2310e+00;0;     0.229;   514.220;  20544.025; 0;  20537.590;  20544.025;  20796.309;  20282.088;221;   9.273; 312.613;;; 238.622;  87.110;   9.114;  -0.012;  -0.247;   9.273;   9.263;   6.749;  -6.358;  -0.002;;;;;;;;;;;;;;;;;;
2015-09-08T07:25:18.421Z;0;5.6820e+00;0;     0.191;   514.276;  21411.637; 0;  21405.459;  21411.637;  21664.143;  21149.865;221;   9.270; 312.819;;; 238.827;  87.315;   9.115;  -0.012;  -0.247;   9.270;   9.260;   6.749;  -6.354;  -0.002;;;;;;;;;;;;;;;;;;
2015-09-08T07:25:26.421Z;0;6.6040e+00;0;     0.186;   514.276;  23083.576; 0;  23077.848;  23083.576;  23336.418;  22822.141;221;   9.269; 312.887;;; 238.895;  87.383;   9.116;  -0.012;  -0.247;   9.269;   9.260;   6.749;  -6.353;  -0.002;;;;;;;;;;;;;;;;;;
2015-09-08T07:25:34.421Z;0;6.1080e+00;0;     0.174;   514.276;  22200.027; 0;  22194.070;  22200.027;  22452.697;  21938.422;221;   9.268; 312.956;;; 238.963;  87.451;   9.116;  -0.011;  -0.247;   9.268;   9.259;   6.750;  -6.351;  -0.002;;;;;;;;;;;;;;;;;;
2015-09-08T07:25:50.421Z;0;5.4090e+00;0;     0.191;   514.276;  20891.949; 0;  20885.619;  20891.949;  21144.340;  20630.062;221;   9.266; 313.093;;; 239.100;  87.588;   9.117;  -0.011;  -0.247;   9.266;   9.257;   6.750;  -6.348;  -0.002;;;;;;;;;;;;;;;;;;
2015-09-08T07:25:58.421Z;0;5.5340e+00;0;     0.194;   514.276;  21131.031; 0;  21124.771;  21131.031;  21383.475;  20869.199;221;   9.265; 313.162;;; 239.168;  87.656;   9.117;  -0.011;  -0.247;   9.265;   9.256;   6.750;  -6.347;  -0.002;;;;;;;;;;;;;;;;;;
2015-09-08T07:26:06.421Z;0;6.2970e+00;0;     0.162;   511.112;  22540.605; 0;  22534.811;  22540.605;  22791.814;  22280.703;221;   9.264; 313.230;;; 239.236;  87.724;   9.118;  -0.011;  -0.247;   9.264;   9.255;   6.750;  -6.346;  -0.002;;;;;;;;;;;;;;;;;;
2015-09-08T07:26:14.421Z;0;6.7730e+00;0;     0.189;   511.112;  23376.355; 0;  23370.768;  23376.355;  23627.721;  23116.607;221;   9.263; 313.299;;; 239.304;  87.793;   9.118;  -0.011;  -0.247;   9.263;   9.254;   6.750;  -6.344;  -0.002;;;;;;;;;;;;;;;;;;
2015-09-08T07:26:22.421Z;0;6.0880e+00;0;     0.166;   511.112;  22162.172; 0;  22156.277;  22162.172;  22413.307;  21902.195;221;   9.263; 313.367;;; 239.373;  87.861;   9.119;  -0.011;  -0.247;   9.263;   9.253;   6.750;  -6.343;  -0.002;;;;;;;;;;;;;;;;;;
2015-09-08T07:26:38.421Z;0;6.2490e+00;0;     0.189;   511.112;  22454.773; 0;  22448.955;  22454.773;  22705.967;  22194.854;221;   9.261; 313.504;;; 239.509;  87.998;   9.119;  -0.011;  -0.246;   9.261;   9.251;   6.750;  -6.340;  -0.002;;;;;;;;;;;;;;;;;;
2015-09-08T07:26:54.421Z;0;6.3290e+00;0;     0.186;   511.112;  22597.055; 0;  22591.273;  22597.055;  22848.275;  22337.162;221;   9.259; 313.642;;; 239.645;  88.135;   9.120;  -0.011;  -0.246;   9.259;   9.249;   6.750;  -6.337;  -0.002;;;;;;;;;;;;;;;;;;
2015-09-08T07:27:50.420Z;0;5.5570e+00;0;     0.199;   520.996;  21174.906; 0;  21168.496;  21174.906;  21430.596;  20909.602;221;   9.252; 314.122;;; 240.122;  88.614;   9.123;  -0.011;  -0.246;   9.252;   9.243;   6.750;  -6.327;  -0.002;;;;;;;;;;;;;;;;;;
2015-09-08T07:27:58.420Z;0;6.0540e+00;0;     0.200;   520.996;  22101.361; 0;  22095.221;  22101.361;  22357.254;  21836.258;221;   9.251; 314.190;;; 240.191;  88.682;   9.124;  -0.011;  -0.246;   9.251;   9.242;   6.750;  -6.326;  -0.002;;;;;;;;;;;;;;;;;;
2015-09-08T07:28:06.420Z;0;6.2410e+00;0;     0.180;   517.944;  22438.969; 0;  22432.990;  22438.969;  22693.457;  22175.514;221;   9.251; 314.259;;; 240.259;  88.751;   9.124;  -0.011;  -0.246;   9.251;   9.241;   6.750;  -6.325;  -0.002;;;;;;;;;;;;;;;;;;
2015-09-08T07:28:54.420Z;0;6.1620e+00;0;     0.195;   517.944;  22298.117; 0;  22292.102;  22298.117;  22552.576;  22034.633;221;   9.245; 314.670;;; 240.668;  89.163;   9.127;  -0.010;  -0.246;   9.245;   9.236;   6.751;  -6.316;  -0.002;;;;;;;;;;;;;;;;;;
2015-09-08T07:29:10.420Z;0;6.2020e+00;0;     0.218;   524.720;  22369.305; 0;  22363.150;  22369.305;  22627.049;  22102.328;221;   9.243; 314.807;;; 240.804;  89.300;   9.128;  -0.010;  -0.246;   9.243;   9.234;   6.751;  -6.313;  -0.002;;;;;;;;;;;;;;;;;;
2015-09-08T07:29:58.420Z;0;5.8410e+00;0;     0.142;   524.720;  21709.129; 0;  21702.787;  21709.129;  21966.732;  21442.012;221;   9.238; 315.219;;; 241.213;  89.713;   9.130;  -0.010;  -0.246;   9.238;   9.228;   6.751;  -6.305;  -0.002;;;;;;;;;;;;;;;;;;
2015-09-08T07:30:06.420Z;0;6.0980e+00;0;     0.213;   521.640;  22181.707; 0;  22175.572;  22181.707;  22437.926;  21916.287;221;   9.237; 315.287;;; 241.281;  89.781;   9.131;  -0.010;  -0.246;   9.237;   9.227;   6.751;  -6.304;  -0.002;;;;;;;;;;;;;;;;;;
2015-09-08T07:30:14.419Z;0;6.0620e+00;0;     0.173;   521.640;  22116.230; 0;  22110.078;  22116.230;  22372.436;  21850.797;221;   9.236; 315.356;;; 241.349;  89.849;   9.131;  -0.010;  -0.246;   9.236;   9.226;   6.751;  -6.302;  -0.002;;;;;;;;;;;;;;;;;;
2015-09-08T07:30:30.419Z;0;6.6090e+00;0;     0.204;   521.640;  23092.062; 0;  23086.170;  23092.062;  23348.463;  22826.822;221;   9.234; 315.493;;; 241.485;  89.985;   9.132;  -0.010;  -0.246;   9.234;   9.225;   6.751;  -6.299;  -0.002;;;;;;;;;;;;;;;;;;
2015-09-08T07:30:38.419Z;0;6.3170e+00;0;     0.191;   521.640;  22576.098; 0;  22570.070;  22576.098;  22832.396;  22310.758;221;   9.233; 315.561;;; 241.554;  90.054;   9.132;  -0.010;  -0.246;   9.233;   9.224;   6.751;  -6.298;  -0.002;;;;;;;;;;;;;;;;;;
2015-09-08T07:30:46.419Z;0;6.2550e+00;0;     0.171;   521.640;  22465.701; 0;  22459.645;  22465.701;  22721.979;  22200.338;221;   9.232; 315.630;;; 241.622;  90.122;   9.133;  -0.010;  -0.246;   9.232;   9.223;   6.751;  -6.297;  -0.002;;;;;;;;;;;;;;;;;;
2015-09-08T07:30:54.419Z;0;6.2670e+00;0;     0.209;   521.640;  22486.348; 0;  22480.297;  22486.348;  22742.629;  22220.990;221;   9.231; 315.698;;; 241.690;  90.190;   9.133;  -0.010;  -0.246;   9.231;   9.222;   6.751;  -6.295;  -0.002;;;;;;;;;;;;;;;;;;
2015-09-08T07:31:10.419Z;0;6.5840e+00;0;     0.168;   526.512;  23048.629; 0;  23042.615;  23048.629;  23307.375;  22780.861;221;   9.229; 315.835;;; 241.826;  90.326;   9.134;  -0.010;  -0.246;   9.229;   9.220;   6.751;  -6.292;  -0.002;;;;;;;;;;;;;;;;;;
2015-09-08T07:31:18.419Z;0;6.1900e+00;0;     0.169;   526.512;  22348.998; 0;  22342.795;  22348.998;  22607.602;  22081.090;221;   9.228; 315.904;;; 241.894;  90.394;   9.135;  -0.010;  -0.246;   9.228;   9.219;   6.751;  -6.291;  -0.002;;;;;;;;;;;;;;;;;;
2015-09-08T07:31:26.419Z;0;6.0010e+00;0;     0.202;   526.512;  22003.635; 0;  21997.334;  22003.635;  22262.166;  21735.654;221;   9.227; 315.973;;; 241.962;  90.462;   9.135;  -0.010;  -0.246;   9.227;   9.218;   6.751;  -6.290;  -0.002;;;;;;;;;;;;;;;;;;
2015-09-08T07:31:42.419Z;0;5.5640e+00;0;     0.183;   526.512;  21188.777; 0;  21182.234;  21188.777;  21447.127;  20920.615;221;   9.226; 316.110;;; 242.099;  90.599;   9.136;  -0.010;  -0.246;   9.226;   9.216;   6.752;  -6.287;  -0.002;;;;;;;;;;;;;;;;;;
2015-09-08T07:32:14.419Z;0;4.7910e+00;0;     0.208;   532.896;  19662.775; 0;  19655.553;  19662.775;  19923.807;  19390.910;221;   9.222; 316.384;;; 242.371;  90.871;   9.138;  -0.009;  -0.246;   9.222;   9.213;   6.752;  -6.281;  -0.002;;;;;;;;;;;;;;;;;;
2015-09-08T07:32:22.419Z;0;5.0740e+00;0;     0.198;   532.896;  20234.324; 0;  20227.307;  20234.324;  20495.508;  19962.613;221;   9.221; 316.452;;; 242.439;  90.939;   9.138;  -0.009;  -0.246;   9.221;   9.212;   6.752;  -6.280;  -0.002;;;;;;;;;;;;;;;;;;
2015-09-08T07:32:46.418Z;0;4.6290e+00;0;     0.196;   532.896;  19327.256; 0;  19319.908;  19327.256;  19588.193;  19055.297;221;   9.218; 316.658;;; 242.644;  91.144;   9.139;  -0.009;  -0.246;   9.218;   9.209;   6.752;  -6.276;  -0.001;;;;;;;;;;;;;;;;;;